Queralbs





Hora UTC 04:35
Temperatura 6.4 ºC
Humitat 61.0 %
Pressió 1018.6 hPa
Pluja 0.0 mm
Velocitat vent 0.0 km/h
Direcció vent NW
Radiació solar 0.0 W/m²

Dades diàries 2020-09-29



Hora UTC (hivern +1h; estiu +2h)
Temperatura (ºC) Humitat (%) Pressió (hPa) Velocitat vent (km/h) Precipitació (mm) Radiació solar (W/m²)
Hora UTC Aire Humitat Pressió Vel. Dir. Vel. Max Dir. Intent. màx 5 min. Rad. Sol.
00:00 7.2 70.0 1019.6 1.6 WNW 1.6 0.0 0.0
00:05 7.2 70.0 1019.7 3.2 NW 6.4 0.0 0.0
00:10 7.3 69.0 1019.6 0.0 NW 6.4 0.0 0.0
00:15 7.3 69.0 1019.8 0.0 NW 1.6 0.0 0.0
00:20 7.2 69.0 1019.7 1.6 NW 3.2 0.0 0.0
00:25 7.3 69.0 1019.7 1.6 NW 3.2 0.0 0.0
00:30 7.2 70.0 1019.6 3.2 NW 4.8 0.0 0.0
00:35 7.3 69.0 1019.5 1.6 NW 4.8 0.0 0.0
00:40 7.4 69.0 1019.4 1.6 NW 3.2 0.0 0.0
00:45 7.4 69.0 1019.4 0.0 NW 3.2 0.0 0.0
00:50 7.6 68.0 1019.4 0.0 NW 3.2 0.0 0.0
00:55 7.6 68.0 1019.4 1.6 NW 3.2 0.0 0.0
01:00 7.6 68.0 1019.3 0.0 NW 3.2 0.0 0.0
01:05 7.6 68.0 1019.3 3.2 NW 3.2 0.0 0.0
01:15 7.6 67.0 1019.4 1.6 NW 4.8 0.0 0.0
01:20 7.7 67.0 1019.3 0.0 NW 4.8 0.0 0.0
01:25 7.6 67.0 1019.2 1.6 NW 3.2 0.0 0.0
01:30 7.6 66.0 1019.2 0.0 NW 3.2 0.0 0.0
01:35 7.5 67.0 1019.1 0.0 NW 3.2 0.0 0.0
01:40 7.4 66.0 1019.2 0.0 NW 3.2 0.0 0.0
01:45 7.6 66.0 1019.1 1.6 NW 3.2 0.0 0.0
01:50 7.6 66.0 1019.1 0.0 NW 3.2 0.0 0.0
01:55 7.5 65.0 1019.0 1.6 NW 1.6 0.0 0.0
02:00 7.4 64.0 1018.9 0.0 NW 1.6 0.0 0.0
02:05 7.4 65.0 1019.0 1.6 NW 3.2 0.0 0.0
02:10 7.2 65.0 1018.9 0.0 NW 3.2 0.0 0.0
02:15 7.2 65.0 1018.9 0.0 NW 3.2 0.0 0.0
02:20 7.2 64.0 1018.9 0.0 NW 3.2 0.0 0.0
02:25 7.2 64.0 1018.9 1.6 NW 3.2 0.0 0.0
02:30 7.2 65.0 1018.9 1.6 NW 3.2 0.0 0.0
02:35 7.1 64.0 1018.8 0.0 NW 3.2 0.0 0.0
02:40 7.1 64.0 1018.8 0.0 NW 1.6 0.0 0.0
02:45 6.9 65.0 1018.7 0.0 NW 1.6 0.0 0.0
02:50 6.9 63.0 1018.6 1.6 NW 1.6 0.0 0.0
02:55 6.9 63.0 1018.5 1.6 NW 3.2 0.0 0.0
03:00 6.9 63.0 1018.4 1.6 NW 3.2 0.0 0.0
03:05 7.1 63.0 1018.4 0.0 NW 3.2 0.0 0.0
03:10 6.9 63.0 1018.6 0.0 NW 1.6 0.0 0.0
03:15 6.9 62.0 1018.6 1.6 NW 3.2 0.0 0.0
03:20 6.9 63.0 1018.6 0.0 NW 3.2 0.0 0.0
03:25 6.7 63.0 1018.6 1.6 NW 3.2 0.0 0.0
03:30 6.7 64.0 1018.6 1.6 NW 3.2 0.0 0.0
03:35 6.4 64.0 1018.6 1.6 NW 3.2 0.0 0.0
03:40 6.3 63.0 1018.7 0.0 NW 3.2 0.0 0.0
03:45 6.6 63.0 1018.7 3.2 NW 4.8 0.0 0.0
03:50 6.6 62.0 1018.6 3.2 NW 4.8 0.0 0.0
03:55 6.6 62.0 1018.6 1.6 NW 4.8 0.0 0.0
04:00 6.7 61.0 1018.6 1.6 NW 3.2 0.0 0.0
04:05 6.8 63.0 1018.5 0.0 NW 3.2 0.0 0.0
04:05 6.6 62.0 1018.5 4.8 NW 4.8 0.0 0.0
04:15 6.6 63.0 1018.7 0.0 NW 4.8 0.0 0.0
04:20 6.4 63.0 1018.6 1.6 NW 3.2 0.0 0.0
04:25 6.3 63.0 1018.6 1.6 NW 3.2 0.0 0.0
04:30 6.3 62.0 1018.7 1.6 NW 3.2 0.0 0.0
04:35 6.4 61.0 1018.6 0.0 NW 3.2 0.0 0.0
Màxima 8.2 70.0 1019.8 4.8 NW 6.4 0.0 0.0
Mínima 6.3 61.0 1018.4
Total 0.0